Flag for U.S.A. Weather past 2 weeks in Minot, North Dakota, U.S.A.

Now
67 °F

Passing clouds.


Feels Like: 67 °F
Forecast: 58 / 70 °F
Wind: 15 mph from Southwest

Location: Minot International Airport

Current Time: Jul 28, 2015 at 5:47:37 AM

Latest Report: Jul 28, 2015 at 4:54 AM


Visibility: 10 mi

Pressure: 29.52 "Hg

Humidity: 73%

Dew point: 58 °F

Location of MinotLocation

Historic Weather in Minot — Graph

°F

Minot temperature yesterday

Maximum temperature yesterday: 91 °F (at 4:54 PM)
Minimum temperature yesterday: 60 °F (at 5:54 AM)
Average temperature yesterday: 76 °F

Past Weeks' High & Low Weather Summary

 TemperatureHumidityPressure
High91 °F (Jul 23, 3:54 PM)94% (Jul 16, 12:54 AM)30.01 "Hg (Jul 16, 12:54 AM)
Low53 °F (Jul 21, 5:54 AM)28% (Jul 19, 1:54 PM)29.48 "Hg (Jul 28, 3:54 AM)
Average72 °F65%29.78 "Hg
* Reported Jul 13 3:54 AM — Jul 28 3:54 AM, Minot, Weather by CustomWeather, © 2015

Note: Actual official high and low records may vary slightly from our data, if they occured in-between our weather recording intervals... More about our weather records

Advertising

Minot weather history for previous 24 hours

 ConditionsComfort  
Time TempWeatherWind HumidityBarometerVisibility
3:54 AM
Tue, Jul 28
68 °FClear.13 mph70%29.48 "Hg10 mi
2:54 AM72 °FClear.12 mph61%29.49 "Hg10 mi
1:54 AM73 °FClear.17 mph62%29.49 "Hg10 mi
12:54 AM72 °FLight rain. Passing clouds.29 mph68%29.54 "Hg10 mi
11:54 PM
Mon, Jul 27
81 °FLight rain. Passing clouds.23 mph47%29.54 "Hg10 mi
10:54 PM82 °FClear.17 mph65%29.55 "Hg10 mi
9:54 PM81 °FSunny.14 mph67%29.55 "Hg10 mi
8:54 PM84 °FPassing clouds.13 mph57%29.57 "Hg10 mi
7:54 PM87 °FPartly sunny.9 mph53%29.59 "Hg10 mi
6:54 PM88 °FPartly sunny.14 mph48%29.60 "Hg10 mi
5:54 PM89 °FPartly sunny.15 mph46%29.61 "Hg10 mi
4:54 PM91 °FPassing clouds.20 mph42%29.62 "Hg10 mi
3:54 PM90 °FSunny.23 mph48%29.63 "Hg10 mi
2:54 PM88 °FSunny.21 mph48%29.65 "Hg10 mi
1:54 PM87 °FSunny.18 mph46%29.68 "Hg10 mi
12:54 PM85 °FSunny.14 mph53%29.73 "Hg10 mi
11:54 AM81 °FSunny.15 mph56%29.74 "Hg10 mi
10:54 AM76 °FSunny.10 mph67%29.77 "Hg10 mi
9:54 AM74 °FSunny.12 mph69%29.78 "Hg10 mi
8:54 AM67 °FSunny.6 mph90%29.80 "Hg10 mi
7:54 AM63 °FSunny.3 mph90%29.81 "Hg10 mi
6:54 AM61 °FClear.3 mph93%29.81 "Hg10 mi
5:54 AM60 °FClear.No wind93%29.77 "Hg10 mi
Weather by CustomWeather, © 2015

See weather overviewHow to use our weather pages